Location: B�thencourt
(49.7941°N, 2.9641°E)
Time: 21:47:35
(UTC+00:00)

Daily predictions for brighter satellites

Satellite Brightness Start Highest point End
(mag) Time Altitude Azimuth Time Altitude Azimuth Time Altitude Azimuth
Cosmos 2341 Rocket 4.1 17:15:14 10° S 17:21:37 81° E 17:28:03 10° N
CORIOLIS 4.4 17:18:25 10° SSE 17:23:47 78° WSW 17:29:10 10° NNW
H-2A R/B 2.2 17:18:37 10° SSE 17:23:51 60° ENE 17:29:13 10° N
Cosmos 2219 3.2 17:18:19 10° NNW 17:24:00 82° ENE 17:29:37 10° SSE
Timation 2 Rocket 4.2 17:18:36 10° NNW 17:25:31 68° NE 17:32:16 10° SE
CZ-2D R/B 3.2 17:23:17 10° SSE 17:27:05 70° ENE 17:30:57 10° N
Cosmos 1607 4.3 17:21:55 10° NW 17:28:06 50° NE 17:34:08 10° ESE
SL-19 R/B 4.5 17:22:22 10° NNE 17:28:11 55° ESE 17:33:40 10° S
SMAP 3.9 17:26:05 10° S 17:30:40 57° W 17:35:17 10° NNW
ATLAS 3B R/B 3.0 17:26:04 10° S 17:32:11 44° ESE 17:38:34 10° NE
SKYMED 2 3.9 17:33:24 10° NNE 17:37:34 42° E 17:41:42 10° S
Cosmos 2297 Rocket 2.8 17:32:03 10° NW 17:37:39 64° WSW 17:43:14 10° SSE
Aureole 2 4.0 17:35:19 10° NNW 17:38:16 90° W 17:41:19 10° SSE
Cosmos 1980 Rocket 3.3 17:35:24 10° SSE 17:39:46 23° ESE 17:44:10 10° NE
Okean 2 Rocket 3.4 17:35:40 10° SSW 17:40:05 73° WNW 17:44:35 10° N
Cosmos 2263 Rocket 3.1 17:36:37 10° NNW 17:41:30 30° NE 17:46:21 10° ESE
Okean O Rocket 1.6 17:37:22 10° SSE 17:41:39 65° ENE 17:45:59 10° N
BREEZE-M DEB (TANK) 3.8 17:33:03 10° W 17:42:59 88° S 17:46:00 12° E
Landsat 5 3.8 17:40:22 10° NNE 17:44:30 46° E 17:48:45 10° S
Spot 2 4.3 17:41:24 10° SE 17:45:14 43° ENE 17:49:13 10° N
Okean-O 3.8 17:45:11 10° ESE 17:48:41 23° ENE 17:52:11 10° N
Genesis I 3.3 17:48:34 10° NW 17:52:41 69° NE 17:56:45 10° SE
Cosmos 1656 3.7 17:47:31 10° SSW 17:53:04 85° WNW 17:58:35 10° NNE
YAOGAN 1 3.0 17:49:06 10° SE 17:53:06 39° ENE 17:57:08 10° N
Cosmos 1727 Rocket 4.0 17:46:58 10° N 17:53:15 76° E 17:59:26 10° SSE
Cosmos 2084 Rocket 3.1 17:51:41 10° SSW 17:55:31 68° SE 17:59:25 10° NE
Cosmos 1048 Rocket 4.1 17:50:11 10° NNW 17:55:36 89° NE 18:00:57 10° SSE
ARGOS 3.1 17:50:30 10° SSE 17:55:51 69° ENE 18:01:15 10° N
Cosmos 2298 Rocket 4.2 17:50:51 10° S 17:55:56 49° ESE 18:01:02 10° NNE
CZ-4C R/B 3.2 17:53:00 10° NNE 17:56:23 45° E 17:59:40 10° S
CENTAUR R/B 3.9 17:50:48 10° W 17:56:46 37° NNW 18:03:50 10° NE
MOS 1-B Rocket 4.3 17:50:43 10° NNE 17:57:54 56° E 18:04:00 10° S
Cosmos 1455 Rocket 4.0 17:54:22 10° SE 17:58:02 26° E 18:01:44 10° NNE
Cosmos 1697 Rocket 2.8 17:52:59 10° S 17:58:31 58° ESE 18:04:04 10° NE
Gbstr 26 Del rocket 4.4 17:52:07 10° WNW 17:59:07 81° N 18:06:06 15° E
Cosmos 389 Rocket 2.7 17:56:35 10° SSE 17:59:47 42° E 18:03:02 10° NNE
Cosmos 1908 3.7 17:56:38 10° SSE 18:00:13 36° E 18:03:49 10° NNE
HJ-1C 4.0 17:59:44 10° SE 18:02:39 32° ENE 18:05:36 10° N
H-2A R/B 3.0 17:59:28 10° NE 18:02:50 24° E 18:06:11 10° SSE
Cosmos 2227 Rocket 3.0 17:58:21 10° NW 18:03:54 55° WSW 18:09:23 10° S
Cosmos 2366 rocket 4.2 17:58:38 10° SSW 18:04:48 76° W 18:11:04 10° N
Cosmos 2278 4.5 18:02:18 10° SSE 18:07:05 29° ESE 18:11:54 10° NE
Cosmos 2344 4.5 17:59:19 10° NW 18:07:15 45° NNE 18:15:35 16° E
CZ-4 R/B 1.4 18:05:38 10° SSE 18:09:29 53° ENE 18:13:26 10° N
CSL-04 Rocket 4.4 18:05:49 10° SE 18:10:44 35° ENE 18:15:43 10° N
Cosmos 1470 4.0 18:07:46 10° SSW 18:11:36 45° WNW 18:15:27 10° N
Cosmos 1758 3.5 18:08:20 10° SSW 18:12:19 77° W 18:16:19 10° N
CZ-2C R/B 2.7 18:07:57 10° NNE 18:13:37 75° ESE 18:19:11 10° S
Cosmos 405 4.4 18:11:45 10° SW 18:15:01 40° WNW 18:18:17 10° N
Cosmos 1844 Rocket 4.3 18:13:40 10° N 18:17:23 18° NE 18:19:23 15° ENE
Cosmos 1703 3.2 18:13:46 10° N 18:17:41 60° ENE 18:21:33 10° SSE
Meteor 1-16 Rocket 4.4 18:12:47 10° S 18:18:34 56° E 18:24:16 10° NNE
Cosmos 1125 Rocket 3.5 18:14:10 10° S 18:19:22 63° ESE 18:24:34 10° NNE
Okean 1 Rocket 3.4 18:18:01 10° SSW 18:22:18 66° WNW 18:26:39 10° N
Cosmos 1953 2.3 18:19:54 10° S 18:23:54 61° E 18:27:55 10° NNE
COSMO-SKYMED 1 3.0 18:21:25 10° N 18:25:45 66° WNW 18:30:02 10° SSW
SL-08 R/B 4.5 18:19:50 10° S 18:26:01 89° WSW 18:32:23 10° N
Cosmos 2082 4.0 18:22:48 10° NNW 18:28:25 69° WSW 18:33:59 10° SSE
Meteor 1-21 Rocket 4.3 18:23:00 10° NNW 18:28:51 90° W 18:34:46 10° S
Cosmos 1328 4.1 18:25:05 10° N 18:28:57 45° ENE 18:31:20 21° SE
SL-08 RB Rocket 3.7 18:25:28 10° SSE 18:29:59 85° WSW 18:34:36 10° NNW
Lacrosse 4 Rocket 3.2 18:28:10 10° N 18:31:05 18° NE 18:31:40 17° NE
X-37B 2.3 18:29:10 10° SSW 18:31:32 20° SSE 18:31:32 20° SSE
Iridium 4 Rocket 3.1 18:30:09 10° N 18:34:25 61° E 18:38:59 10° SSE
Cosmos 1000 Rocket 4.5 18:29:23 10° N 18:35:35 87° W 18:41:46 10° S
DMSP B5D2-2 4.1 18:30:44 10° NNE 18:35:54 53° E 18:41:01 10° S
Ariane Rocket 4.4 18:38:02 19° NE 18:38:02 19° NE 18:41:29 10° NNE
USA 186 3.8 18:41:43 17° NNE 18:41:43 17° NNE 18:42:46 10° N
Cosmos 1892 Rocket 3.7 18:36:00 10° NNW 18:40:30 77° W 18:44:56 10° S
DMSP B5D1-3 4.5 18:35:42 10° NNE 18:40:48 62° ESE 18:45:54 10° S
USA 215 3.9 18:39:09 18° ENE 18:43:46 48° N 18:50:01 10° WNW
Cosmos 489 Rocket 4.4 18:38:17 10° NNW 18:44:32 76° ENE 18:49:47 15° SSE
H-2A R/B 3.6 18:46:09 10° S 18:50:24 47° W 18:54:34 10° NNW
Cosmos 405 Rocket 2.9 18:46:37 10° NNW 18:50:31 76° W 18:54:26 10° S
Cosmos 1821 Rocket 4.3 18:46:42 10° SSW 18:53:04 71° WNW 18:59:29 10° N
ATLAS 5 CENTAUR R/B 2.2 19:01:01 10° SSW 19:03:32 35° S 19:03:32 35° S
Cosmos 2227 4.1 18:59:02 10° NNW 19:04:51 80° ENE 19:07:21 36° SE
Cosmos 2369 4.0 19:01:03 10° SW 19:06:42 69° WNW 19:12:24 10° NNE
Cosmos 1626 Rocket 3.3 19:06:19 10° N 19:10:40 78° E 19:11:04 70° SE
In-Cosmos 22 Rocket 4.1 19:09:16 10° N 19:14:33 53° ENE 19:14:41 53° ENE
SeaSat 1 4.1 19:17:30 19° NNE 19:17:30 19° NNE 19:20:30 10° N
Cosmos 1934 Rocket 4.0 19:14:19 10° SSW 19:20:28 79° W 19:26:35 10° N
Cosmos 839 Rocket 4.3 19:14:07 10° NW 19:22:20 73° NE 19:24:24 48° ESE
ATLAS 3B R/B 3.3 19:16:19 10° WSW 19:22:47 55° NW 19:29:13 12° NE
Cosmos 724 4.4 19:16:49 10° NW 19:22:48 75° SW 19:24:47 43° SSE
Cosmos 1980 Rocket 2.5 19:17:38 10° SW 19:23:16 67° WNW 19:28:58 10° NNE
OBJECT-B 3.1 19:26:21 19° NNW 19:26:21 19° NNW 19:27:24 10° NNW
Okean-O 3.5 19:21:29 15° S 19:24:54 47° W 19:29:12 10° NNW
Cosmos 2123 Rocket 4.5 19:19:13 10° NNW 19:25:28 61° W 19:31:39 10° S
SJ-6B 3.8 19:27:09 38° N 19:27:09 38° N 19:29:36 10° N
Cosmos 2263 Rocket 2.6 19:20:19 10° NW 19:25:49 60° WSW 19:28:27 30° S
Meteor 2-10 Rocket 4.2 19:35:10 43° NE 19:35:10 43° NE 19:38:54 10° NNE
Resurs 01 Rocket 3.6 19:40:22 19° N 19:40:22 19° N 19:41:49 10° N
H-2A R/B 3.3 19:35:07 10° N 19:38:55 37° WNW 19:42:43 10° SW
Cosmos 1697 Rocket 4.4 19:37:50 10° WSW 19:42:50 31° NW 19:47:52 10° NNE
CZ-4 R/B 4.2 19:42:17 10° SW 19:44:49 16° W 19:47:23 10° NW
Orbus 7S? 4.0 19:36:42 10° WNW 19:45:09 82° N 19:45:09 82° N
CENTAUR R/B 4.3 19:43:29 10° NW 19:49:37 29° N 19:53:07 22° NE
Cosmos 2278 4.3 19:45:20 10° SW 19:50:55 56° NW 19:56:33 10° NNE
Cosmos 2251 Rocket 4.1 19:53:46 10° NNW 19:57:44 51° N 19:57:44 51° N
Cosmos 2278 Rocket 4.1 19:58:07 10° N 20:00:57 18° NNE 20:00:57 18° NNE
Cosmos 1844 Rocket 3.2 19:56:49 10° NNW 20:01:04 49° N 20:01:04 49° N
IRS-1A Rocket 4.4 20:04:49 76° NNW 20:04:49 76° NNW 20:10:13 10° NNW
Lacrosse 4 Rocket 3.4 20:06:06 10° NNW 20:07:58 25° NNW 20:07:58 25° NNW
Ariane Rocket 4.1 20:18:14 39° NNW 20:18:14 39° NNW 20:21:27 10° NNW
Cosmos 2344 4.2 20:13:41 10° NW 20:22:41 78° SW 20:25:37 56° SSE
USA 215 3.6 20:26:30 56° N 20:26:30 56° N 20:32:37 10° WNW
ATLAS 3B R/B 4.3 21:09:19 10° WNW 21:15:01 28° NNW 21:16:26 26° N
CENTAUR R/B 4.1 21:35:00 10° NW 21:40:16 38° N 21:40:16 38° N
